Regional Weather Roundup
Issued by NWS

Home | Current Version | Previous Version | Text Only | Print | Product List | Glossary Off
Versions: 1 2 3 4 5 6 7 8 9 10 11 12 13 14 15 16 17 18 19 20 21 22 23 24 25 26 27 28 29 30 31 32 33 34 35 36 37 38 39 40 41 42 43 44 45 46 47 48 49 50

000
ASUS43 KTOP 240408
RWRKS

WEATHER ROUNDUP FOR KANSAS
NATIONAL WEATHER SERVICE GOODLAND KS
1100 PM CDT MON MAY 23 2016

NOTE:  "FAIR" INDICATES FEW OR NO CLOUDS BELOW 12,000 FEET WITH NO
SIGNIFICANT WEATHER AND/OR OBSTRUCTIONS TO VISIBILITY.

KSZ001>006-013>018-027>032-041>047-240500-
NORTHWEST KANSAS

CITY           SKY/WX    TMP DP  RH WIND       PRES   REMARKS
GOODLAND       CLEAR     57  50  77 E7        29.84R
HAYS           CLOUDY    72  63  73 S15       29.80R
HILL CITY      CLEAR     64  61  90 CALM      29.80R
RUSSELL        CLOUDY    69  65  86 SE14      29.79R
$$

KSZ061>065-074>080-084>089-240500-
SOUTHWEST KANSAS

CITY           SKY/WX    TMP DP  RH WIND       PRES   REMARKS
DODGE CITY     PTCLDY    69  65  86 S22G29    29.79R
ELKHART          N/A     68  57  68 SE16        N/A
GARDEN CITY    CLEAR     69  67  93 SE15      29.77R
GREAT BEND     CLOUDY    72  63  73 S18       29.79R
LIBERAL        CLEAR     73  63  68 SE14      29.78R
PRATT          CLOUDY    69  65  88 S17G23    29.81R
$$

KSZ066>073-081>083-090>101-240500-
SOUTHEAST KANSAS

CITY           SKY/WX    TMP DP  RH WIND       PRES   REMARKS
CHANUTE        CLEAR     63  60  90 S6        29.89R
COFFEYVILLE    CLOUDY    67  63  87 SE10      29.89R
HUTCHINSON     CLOUDY    70  66  87 S14       29.84R
MEDICINE LODGE   N/A     72  67  84 S13G20    29.81R
NEWTON         CLOUDY    66  59  77 S14       29.88R
PARSONS        CLOUDY    66  63  90 VRB5      29.90R
WICHITA INTL   CLOUDY    69  65  86 S14       29.85R
WICHITA JABRA  CLOUDY    67  64  90 S14       29.85R
WICHITA MCCONL CLOUDY    67  64  90 S14       29.85R
WINFIELD       CLOUDY    68  65  90 SE9       29.87R
$$

KSZ007>012-019>026-033>040-048>060-102>105-240500-
NORTHEAST KANSAS

CITY           SKY/WX    TMP DP  RH WIND       PRES   REMARKS
CONCORDIA      PTCLDY    68  59  73 S15       29.82R
EMPORIA        CLOUDY    65  62  90 S12       29.88R
LAWRENCE         N/A     64  62  93 SE6       29.89R
MANHATTAN      CLOUDY    69  61  75 S6        29.85R
MARYSVILLE     CLOUDY    68  61  77 S10       29.85R
OLATHE IND     CLOUDY    63  61  93 SE7       29.90R
OLATHE EXE     CLOUDY    62  60  93 S7        29.90R
SALINA         CLOUDY    70  62  76 S16       29.83R
TOPEKA BILLARD MOCLDY    65  61  87 SE3       29.88R
TOPEKA FORBES  MOCLDY    66  62  87 SE7       29.88R
$$



USA.gov is the U.S. government's official web portal to all federal, state and local government web resources and services.